Regional Weather Roundup
Issued by NWS

Home | Current Version | Previous Version | Graphics & Text | Print | Product List | Glossary Off
Versions: 1 2 3 4 5 6 7 8 9 10 11 12 13 14 15 16 17 18 19 20 21 22 23 24 25 26 27 28 29 30 31 32 33 34 35 36 37 38 39 40 41 42 43 44 45 46 47 48 49 50

000
ASUS43 KMKX 231411
RWRWI

WISCONSIN REGIONAL WEATHER ROUNDUP
NATIONAL WEATHER SERVICE MILWAUKEE/SULLIVAN WI
800 AM CST THU NOV 23 2017

NOTE: "FAIR" INDICATES FEW OR NO CLOUDS BELOW 12,000 FEET WITH NO
SIGNIFICANT WEATHER AND/OR OBSTRUCTIONS TO VISIBILITY.

WIZ001-002-006>008-014>016-023>028-231500-
NORTHWEST WISCONSIN

CITY           SKY/WX    TMP DP  RH WIND       PRES   REMARKS
SUPERIOR ARPT  CLOUDY    19  17  95 SW5       29.93F WCI  12
ASHLAND        CLEAR     22  17  81 W6        29.93R WCI  14
HAYWARD        CLOUDY    19  14  81 CALM      29.92R
SIREN          CLOUDY    16  15  94 CALM      29.93S
CUMBERLAND     CLOUDY    18  16  93 CALM      29.92S
RICE LAKE      CLOUDY    19  19  97 CALM      29.95R
CHETEK         CLOUDY    18  17  95 CALM      29.93R
LADYSMITH      CLEAR     21  19  93 CALM      29.93S
EAU CLAIRE     CLOUDY    19  16  88 CALM      29.93F
MENOMONIE      CLOUDY    21  18  87 CALM      29.95R
NEW RICHMOND   CLOUDY    17  15  93 CALM      29.94S
OSCEOLA        CLOUDY    16  16 100 CALM      29.98R
$$

WIZ003>005-009-010-017-018-231500-
NORTH CENTRAL WISCONSIN

CITY           SKY/WX    TMP DP  RH WIND       PRES   REMARKS
MANITOWISH WTR CLOUDY    22  20  90 W6        29.86S WCI  15
ARBOR VITAE    CLEAR     23  21  92 SW5       29.86S WCI  17
WOODRUFF       CLEAR     23  21  92 SW5       29.86S WCI  17
RHINELANDER    CLOUDY    23  20  88 SW5       29.88F WCI  17
EAGLE RIVER    CLOUDY    24  18  80 SW3       29.85F
LAND O LAKES   CLOUDY    22  19  89 SW3       29.86F
PHILLIPS       CLOUDY    23  19  87 CALM      29.88S
TOMAHAWK       CLOUDY    25  19  80 CALM      29.89F
MEDFORD        CLOUDY    18  16  92 S3        29.89S
MERRILL        CLOUDY    23  21  93 CALM      29.92F
$$

WIZ029-030-035-036-043>047-231500-
CENTRAL WISCONSIN

CITY           SKY/WX    TMP DP  RH WIND       PRES   REMARKS
WAUSAU         CLOUDY    24  20  84 SE3       29.91S
MOSINEE        PTCLDY    21  19  93 W3        29.93R
MARSHFIELD     CLOUDY    23  16  74 CALM      29.91R
STEVENS POINT  CLOUDY    19  17  93 CALM      29.94S
WAUPACA        CLOUDY    26  22  84 CALM      29.96R
WAUTOMA        CLOUDY    26  22  84 CALM      29.96R
WISC RAPIDS    CLOUDY    22  18  85 CALM      29.95R
CAMP DOUGLAS   CLOUDY    23  17  79 CALM      29.95R
$$

WIZ011>013-019>022-031-037>040-048>050-231500-
NORTHEAST WISCONSIN

CITY           SKY/WX    TMP DP  RH WIND       PRES   REMARKS
ANTIGO         CLOUDY    24  20  85 CALM      29.90F
SHAWANO        CLOUDY    28  23  81 CALM      29.95R
OCONTO         MOCLDY    29  22  76 SW3       29.96R
STURGEON BAY   CLOUDY    31  23  72 SW8       29.96S WCI  23
GREEN BAY      CLOUDY    29  23  78 CALM      29.96S
MANITOWOC      CLOUDY    31  22  69 SW7       29.97F WCI  24
APPLETON       PTCLDY    28  19  69 SW5       29.94S WCI  23
CLINTONVILLE   CLOUDY    25  21  86 CALM      29.95S
OSHKOSH        MOCLDY    30  22  72 S7        29.96R WCI  23
$$

WIZ032>034-041-042-053>061-231500-
SOUTHWEST WISCONSIN

CITY           SKY/WX    TMP DP  RH WIND       PRES   REMARKS
LA CROSSE      CLOUDY    28  21  75 S3        29.96R
SPARTA         CLOUDY    21  18  86 CALM      29.95F
VIROQUA        CLOUDY    27  20  75 S3        29.93S
BOSCOBEL       CLOUDY    26  19  74 CALM      29.98R
PRAIRIE DU CHI CLOUDY    27  19  72 CALM      29.97R
PLATTEVILLE    CLOUDY    28  22  77 S6        29.96F WCI  22
$$

WIZ056-057-062-063-064-067-068-231500-
SOUTH CENTRAL WISCONSIN

CITY           SKY/WX    TMP DP  RH WIND       PRES   REMARKS
REEDSBURG      CLEAR     29  19  63 CALM      29.95R
BARABOO/DELLS  CLEAR     30  18  61 SW3       29.95R
LONE ROCK      CLOUDY    28  22  78 CALM      29.97S
MINERAL POINT  CLOUDY    32  23  69 S5        29.95S WCI  27
MADISON        PTCLDY    31  20  63 S7        29.96S WCI  24
MIDDLETON      CLEAR     32  21  62 SW7       29.96F WCI  26
WATERTOWN      CLOUDY    32  21  64 SW6       29.97S WCI  26
MONROE         CLOUDY    30  23  74 S9        29.96S WCI  22
JANESVILLE     PTCLDY    32  21  64 S6        29.99R WCI  26
$$

WIZ051-052-058>065-066-070>072-231500-
SOUTHEAST WISCONSIN

CITY           SKY/WX    TMP DP  RH WIND       PRES   REMARKS
MILWAUKEE      PTCLDY    34  21  59 SW12      30.00R WCI  25
WAUKESHA       PTCLDY    30  19  64 S6        29.99S WCI  24
MILWAUKEE/TIMM PTCLDY    32  18  55 SW6       30.00S WCI  26
RACINE         CLEAR     33  20  58 SW8       30.02R WCI  26
BURLINGTON     PTCLDY    33  27  79 S9        29.99F WCI  25
KENOSHA        PTCLDY    33  20  58 SW9       30.01R WCI  25
FOND DU LAC    CLOUDY    33  19  56 SW7       29.96S WCI  27
SHEBOYGAN      CLOUDY    32  23  69 S6        29.98S WCI  26
WEST BEND      CLOUDY    32  19  59 SW6       29.98S WCI  26
JUNEAU         CLOUDY    32  20  63 S8        29.98R WCI  24
$$

LSZ147-162-231500-
LAKE SUPERIOR

STATION/POSITION TIME  TEMP    WIND        PRES    WAVE
                       AIR SEA DIR/SP/G            HT/PER
                 (UTC) (F)     (DEG/KT/KT) (MB)    (FT/S)
DEVILS ISLAND    1400   29     260/ 17/ 20 1013.5R
SAXON HARBOR     1340   25     190/  3/  5 1012.9R
$$

LMZ867-665-643>646-231500-
LAKE MICHIGAN

STATION/POSITION TIME  TEMP    WIND        PRES    WAVE
                       AIR SEA DIR/SP/G            HT/PER
                 (UTC) (F)     (DEG/KT/KT) (MB)    (FT/S)
N MID LAKE BUOY  1350   34 47  240/ 14/ 17 1014.8F   4/ 6
NORTHPORT PIER   1401   33     280/  5/ 11 1013.5
KEWAUNEE LAKESHO 1342   31     240/  5/  8 1013.9F
SHEBOYGAN LAKESH 1400   33     220/ 10/ 11 1015.8F
PORT WASHINGTON  1340   36     220/  4/  6 1016.9R
MILWAUKEE LAKESH 1350   34     220/  9/ 10   N/A
S MID LAKE BUOY  1350   39 47  240/ 17/ 19 1017.0F   4/ 5
KENOSHA   LAKESH 1400   34     220/  9/ 14 1016.3
$$

TC  - TEMPERATURE IN CELSIUS
VSB - VISIBILITY IN STATUTE MILES
WCI - WIND CHILL INDEX
HX  - HEAT INDEX





USA.gov is the U.S. government's official web portal to all federal, state and local government web resources and services.